Vorticity
nan nan nan nan nan nan nan nan nan nan nan nan nan nan nan nan nan nan nan nan nan nan nan nan nan nan nan nan nan nan nan nan nan nan nan nan nan nan nan nan nan nan nan nan nan nan nan
nan 9 9 10 13 16 13 9 7 6 8 6 6 7 7 7 8 7 6 7 8 7 7 24 18 -2 3 4 13 14 6 7 6 7 7 8 7 7 7 7 7 7 8 8 8 7 nan
nan 15 21 19 25 28 27 13 12 18 12 9 7 6 6 8 9 8 6 7 8 13 24 31 6 -7 7 9 8 9 5 7 8 8 7 7 11 9 6 8 8 7 7 12 14 14 nan
nan 15 16 17 16 16 32 46 27 12 18 16 11 7 6 7 8 9 7 7 11 22 38 28 -1 -1 7 8 10 6 4 8 9 8 7 8 10 9 7 5 4 10 8 9 13 15 nan
nan 9 7 8 3 8 11 33 29 9 8 12 11 7 7 8 8 7 7 10 18 38 32 6 -4 8 4 12 15 4 6 7 5 6 7 8 8 7 7 7 7 8 7 5 9 9 nan
nan 12 8 5 6 10 11 7 2 3 6 9 10 9 8 8 7 8 15 16 19 19 1 -0 8 12 12 16 9 5 8 8 6 5 6 7 7 5 6 6 6 6 4 4 2 1 nan
nan 9 9 11 12 8 8 7 7 7 7 8 9 8 10 8 8 14 20 13 9 6 6 8 5 8 16 8 10 10 8 8 10 7 6 7 8 8 6 3 -2 -1 3 3 5 4 nan
nan 10 9 7 8 10 8 8 10 11 10 10 10 11 9 7 11 17 15 13 10 3 7 14 10 11 10 4 6 6 9 7 8 8 5 8 9 13 10 7 6 1 4 5 10 15 nan
nan 5 7 8 9 8 9 10 10 10 10 10 11 11 9 9 17 13 12 7 9 8 4 8 10 8 5 6 10 9 4 6 7 8 7 1 5 14 11 4 11 8 9 8 5 12 nan
nan 8 9 9 8 8 9 10 10 10 10 11 10 9 8 17 17 9 6 9 12 9 8 8 11 5 7 7 12 12 4 4 10 10 8 5 10 4 11 14 8 9 15 8 3 8 nan
nan 9 8 7 6 8 9 11 14 15 13 9 8 10 12 17 9 8 5 11 11 9 11 10 12 10 7 9 10 6 8 9 13 11 8 7 12 10 10 17 9 6 5 8 11 9 nan
nan 9 8 6 7 8 8 11 17 23 23 17 9 10 10 9 10 7 11 10 6 10 8 9 11 10 6 7 10 11 7 8 8 9 10 9 7 11 9 10 9 8 11 15 16 14 nan
nan 8 7 7 7 8 10 13 17 19 19 29 23 11 10 9 5 8 13 10 9 14 11 9 11 11 7 10 10 7 8 6 7 8 7 12 9 9 11 9 14 10 10 14 14 11 nan
nan 9 7 8 7 8 10 13 16 15 12 15 19 11 10 8 8 11 12 11 9 8 13 13 7 8 11 9 8 10 5 9 10 7 7 10 12 12 7 6 8 12 9 8 6 8 nan
nan 8 7 8 7 7 9 10 13 14 9 5 9 11 7 5 11 13 9 11 9 8 7 8 8 7 10 10 9 10 8 10 13 9 5 7 9 14 10 7 4 9 11 9 10 9 nan
nan 8 7 8 8 7 8 8 8 10 15 18 11 10 6 7 11 12 9 8 6 5 14 10 8 10 7 9 9 9 12 10 12 11 4 7 14 9 11 13 9 6 6 9 8 10 nan
nan 8 8 8 8 7 7 8 8 10 18 21 11 13 7 9 13 9 10 6 6 7 11 9 9 13 11 9 8 7 9 8 11 16 10 2 6 9 11 9 11 10 7 10 12 7 nan
nan 9 8 6 8 8 7 8 9 10 19 19 11 6 10 12 13 9 6 7 9 12 9 11 10 11 12 10 9 9 9 6 9 14 11 6 7 12 9 10 11 8 9 10 8 7 nan
nan 9 7 7 8 8 8 8 8 11 21 17 11 8 8 10 7 8 9 10 7 9 9 9 10 10 12 13 11 10 9 9 8 10 9 10 11 9 11 10 10 8 14 15 9 11 nan
nan 8 8 7 7 7 7 9 9 10 19 19 8 8 10 10 8 7 9 8 9 12 11 10 10 10 10 9 11 11 9 10 10 12 12 10 11 14 12 6 4 1 10 23 17 9 nan
nan 8 8 8 8 8 8 7 7 11 20 16 9 11 9 5 7 12 10 7 9 10 12 8 12 14 14 8 8 8 9 11 9 11 16 8 7 9 7 12 13 8 6 12 17 13 nan
nan 7 8 8 7 8 9 8 9 13 19 14 8 8 11 9 8 10 9 9 8 8 10 12 8 7 13 11 6 5 6 12 10 9 9 12 11 6 6 9 10 8 5 10 10 14 nan
nan 7 8 7 8 9 10 11 9 14 18 13 8 10 11 6 11 11 9 8 7 11 11 10 8 8 5 9 12 11 8 8 10 9 9 14 11 9 8 8 10 5 8 10 10 12 nan
nan 6 8 8 8 9 11 18 18 15 14 12 10 10 8 11 11 8 9 9 7 11 11 7 12 10 6 12 16 12 8 7 8 11 14 10 10 11 10 8 14 11 7 10 10 5 nan
nan 5 7 8 8 12 20 26 24 12 8 10 11 10 10 12 6 7 12 10 9 11 11 11 10 7 8 14 13 10 9 11 9 6 10 14 12 11 13 11 6 12 12 11 8 6 nan
nan 6 6 7 10 15 22 24 19 13 8 8 10 11 12 11 8 10 9 11 11 9 10 12 9 10 13 12 10 11 10 7 5 10 13 11 11 10 8 11 10 10 11 9 9 10 nan
nan 7 6 7 12 14 16 16 10 7 10 13 9 10 11 10 10 11 10 9 9 13 10 6 9 13 13 11 12 10 10 9 10 9 8 8 11 9 10 8 10 15 11 9 9 13 nan
nan 6 7 6 11 12 9 7 6 8 14 15 11 9 9 9 13 11 7 7 10 11 10 9 10 10 10 13 11 11 11 9 12 12 11 9 9 8 9 8 15 12 10 13 6 12 nan
nan nan nan nan nan nan nan nan nan nan nan nan nan nan nan nan nan nan nan nan nan nan nan nan nan nan nan nan nan nan nan nan nan nan nan nan nan nan nan nan nan nan nan nan nan nan nan
CAPE
101 102 98 86 73 57 46 49 47 43 49 38 36 40 54 33 40 45 25 15 18 22 24 6 130 36 10 2 0 0 19 10 0 0 0 0 0 0 0 0 0 0 0 0 0 0 0
124 146 170 230 238 106 76 55 67 48 53 61 36 16 37 29 41 38 22 6 10 15 16 0 36 14 8 0 0 0 0 4 14 0 0 0 0 0 0 0 0 0 0 0 0 0 0
112 176 252 259 358 265 238 189 106 78 56 50 42 15 25 39 37 23 11 6 7 4 6 6 80 3 0 0 3 0 0 0 0 0 0 0 0 0 0 0 0 0 0 0 0 0 0
136 176 25 24 54 74 224 477 132 71 80 73 54 37 32 55 36 14 8 3 1 3 107 212 47 0 1 0 0 0 0 0 0 0 0 0 1 0 6 0 0 0 0 0 0 0 0
21 80 103 73 45 49 49 88 38 50 66 62 52 66 60 57 49 26 6 3 0 116 313 303 6 0 3 20 0 0 0 0 0 2 0 2 8 3 8 10 4 4 2 0 0 0 0
47 53 35 53 68 79 112 94 64 55 70 76 75 85 79 68 59 21 3 3 0 250 75 2 12 0 2 2 7 0 0 2 4 13 16 14 13 4 12 11 0 0 0 0 0 0 0
16 10 24 30 16 84 122 135 110 105 120 141 107 96 97 101 84 47 0 0 0 0 28 0 0 0 0 0 1 0 0 0 3 1 0 2 4 0 0 0 0 0 0 0 0 0 2
9 15 32 35 50 68 83 129 151 147 125 125 155 151 122 92 93 85 0 0 0 0 3 34 5 3 0 0 4 1 0 0 0 0 1 4 2 0 0 0 0 0 3 4 0 0 0
12 31 35 27 32 105 120 132 106 119 133 166 168 131 107 120 27 0 0 8 4 5 7 12 11 5 1 5 1 0 0 2 1 0 2 0 0 0 0 0 1 2 10 0 1 0 0
15 22 25 28 46 106 137 164 166 167 165 155 114 92 39 1 0 0 17 18 27 28 2 5 11 22 9 3 1 1 1 14 30 14 22 11 0 0 0 0 0 16 0 0 18 31 1
20 16 21 20 36 83 92 119 142 124 97 60 30 11 0 0 0 0 0 4 8 6 0 14 8 1 4 1 0 0 5 24 26 1 13 0 0 7 9 1 0 3 7 1 0 13 1
9 12 21 27 29 53 86 91 91 76 49 14 0 0 0 0 0 0 0 7 7 1 0 27 2 8 1 2 12 26 16 6 11 12 0 0 0 8 0 0 0 0 0 0 0 4 3
7 16 15 30 25 23 68 91 69 17 5 3 3 5 0 0 0 0 0 0 0 0 13 0 31 4 0 3 13 11 10 1 4 8 6 3 5 0 0 2 0 0 8 0 0 2 0
7 17 20 27 23 30 66 97 66 24 15 5 5 0 0 0 0 0 0 0 0 5 5 14 2 0 0 0 11 11 9 15 4 4 6 0 1 4 0 0 1 12 4 1 0 1 9
8 10 22 20 17 19 20 49 57 33 15 9 0 0 0 0 0 0 0 0 8 5 18 0 6 6 4 2 9 19 3 8 7 0 1 9 1 0 0 0 1 10 20 6 11 7 1
7 9 11 16 16 12 15 6 2 41 16 0 0 0 0 0 0 0 0 8 16 0 1 0 0 0 0 3 10 7 9 0 3 0 0 8 4 0 0 0 0 0 13 9 1 0 0
4 6 10 10 14 11 7 12 3 1 0 0 0 0 0 0 0 0 1 0 0 0 0 0 0 0 0 0 0 10 0 0 0 0 0 0 1 0 0 0 0 0 2 2 0 0 1
2 3 7 7 12 9 10 5 4 2 0 0 0 0 0 0 0 0 0 0 0 0 0 0 0 0 0 0 0 0 0 0 0 0 0 0 0 2 0 0 0 0 0 0 0 0 0
1 0 9 8 5 13 12 7 1 0 0 0 0 0 0 0 0 0 0 0 0 0 0 0 0 0 0 0 0 0 0 0 0 0 0 0 0 0 0 0 0 0 0 0 0 0 0
0 0 8 8 9 14 14 15 2 0 0 0 0 0 0 0 0 0 0 0 0 0 0 0 0 0 0 0 0 0 0 0 0 0 0 0 0 0 0 0 0 0 0 0 0 0 0
0 0 3 8 6 4 2 4 9 0 0 0 0 0 0 0 0 0 0 0 0 0 0 0 0 0 0 0 0 0 0 0 0 0 0 0 0 0 0 0 0 0 0 0 0 0 0
0 0 0 6 6 6 7 6 4 0 0 0 0 0 0 0 0 0 0 0 0 0 0 0 0 0 0 0 0 0 0 0 0 0 0 0 0 0 0 0 0 0 0 0 0 0 0
0 0 0 4 3 4 2 8 11 0 0 0 0 0 0 0 0 0 0 0 0 0 0 0 0 0 0 0 0 0 0 0 0 0 0 0 0 0 0 0 0 0 0 0 0 0 0
0 0 0 4 5 7 13 23 23 0 0 0 0 0 0 0 0 0 0 0 0 0 0 0 0 0 0 0 0 0 0 0 0 0 0 0 0 0 0 0 0 0 0 0 0 0 0
0 0 0 2 6 8 5 5 4 0 0 0 0 0 0 0 0 0 0 0 0 0 0 0 0 0 0 0 0 0 0 0 0 0 0 0 0 0 0 0 0 0 0 0 0 0 0
0 0 0 1 4 19 11 7 0 0 0 0 0 0 0 0 0 0 0 0 0 0 0 0 0 0 0 0 0 0 0 0 0 0 0 0 0 0 0 0 0 0 0 0 0 0 0
0 0 0 0 4 8 0 5 0 1 0 0 0 0 0 0 0 0 0 0 0 0 0 0 0 0 0 0 0 0 0 0 0 0 0 0 0 0 0 0 0 0 0 0 0 0 0
0 0 0 0 4 0 0 0 0 0 0 0 0 0 0 0 0 0 0 0 0 0 0 0 0 0 0 0 0 0 0 0 0 0 0 0 0 0 0 0 0 0 0 0 0 0 0
0 0 0 0 0 5 0 0 0 0 0 0 0 0 0 0 0 0 0 0 0 0 0 0 0 0 0 0 0 0 0 0 0 0 0 0 0 0 0 0 0 0 0 0 0 0 0